Craig, CO

11:51 AM MDT on September 20, 2017 (GMT -0600)
Craig-Moffat

Weather History for KCAG - February, 2013

Change the Weather History Date:

Monday, February 25, 2013

  Actual Average Record
Temperature  
Mean Temperature 9 °F 24 °F  
Max Temperature 27 °F 37 °F 55 °F (2014)
Min Temperature -9 °F 11 °F -9 °F (2013)
Degree Days  
Heating Degree Days 56 41  
Month to date heating degree days 1181 1120  
Since 1 July heating degree days 6155 6204  
Cooling Degree Days 0 0  
Month to date cooling degree days 0 0  
Year to date cooling degree days 0 0  
Moisture  
Dew Point -3 °F    
Average Humidity 65    
Maximum Humidity 83    
Minimum Humidity 46    
Precipitation  
Precipitation 0.00 in 0.03 in 0.41 in (2003)
Month to date precipitation 0.29 0.73  
Year to date precipitation 1.00 1.61  
Sea Level Pressure  
Sea Level Pressure 30.26 in    
Wind  
Wind Speed 2 mph (ESE)    
Max Wind Speed 8 mph    
Max Gust Speed 10 mph    
Visibility 8 miles    
Events      
T = Trace of Precipitation, MM = Missing Value Source: NWS Daily Summary

Daily Weather History Graph

Daily Weather History Graph

Search for Another Location

Airport or City:

Trip Planner

Search our weather history database for the weather conditions in past years. The results will help you decide how hot, cold, wet, or windy it might be!

Date:

Astronomy

Feb. 25, 2013 Rise Set
Actual Time 6:49 AM MST 5:57 PM MST
Civil Twilight 6:21 AM MST 6:24 PM MST
Nautical Twilight 5:50 AM MST 6:56 PM MST
Astronomical Twilight 5:18 AM MST 7:28 PM MST
Moon 6:14 PM MST (2/25) 6:21 AM MST (2/25)
Length of Visible Light 12h 03m
Length of Day
11h 08m
Full, 100% of the Moon is Illuminated
Feb 25
Full
Feb 25
Full
Mar 4
Last Quarter
Mar 11
New
Mar 19
First Quarter

Hourly Weather History & Observations

Time (MST) Temp. Windchill Dew Point Humidity Pressure Visibility Wind Dir Wind Speed Gust Speed Precip Events Conditions
12:00 AM 3.2 °F -7.8 °F -0.4 °F 85% 30.11 in 10.0 mi ENE 5.8 mph - N/A   Scattered Clouds
12:53 AM -0.9 °F -11.0 °F -4.0 °F 87% 30.35 in 10.0 mi ESE 4.6 mph - N/A   Clear
1:53 AM -2.9 °F - -8.0 °F 79% 30.37 in 10.0 mi Calm Calm - N/A   Clear
2:53 AM -7.6 °F - -11.2 °F 84% 30.13 in 10.0 mi Calm Calm - N/A   Clear
3:53 AM -9.0 °F - -16.1 °F 71% 30.43 in 10.0 mi Calm Calm - N/A   Clear
4:13 AM -7.6 °F - -14.8 °F 71% 30.15 in 10.0 mi Calm Calm - N/A   Scattered Clouds
4:53 AM -7.1 °F - -14.1 °F 72% 30.43 in 10.0 mi Calm Calm - N/A   Partly Cloudy
5:07 AM -7.6 °F - -14.8 °F 71% 30.16 in 10.0 mi Calm Calm - N/A   Mostly Cloudy
5:53 AM -7.1 °F - -15.0 °F 68% 30.43 in 10.0 mi Calm Calm - N/A   Mostly Cloudy
6:27 AM -5.8 °F - -13.0 °F 71% 30.16 in 1.8 mi Calm Calm - N/A   Haze
6:45 AM -4.0 °F - -11.2 °F 71% 30.16 in 3.0 mi Calm Calm - N/A   Haze
6:53 AM -5.1 °F - -11.9 °F 72% 30.45 in 5.0 mi Calm Calm - N/A   Haze
7:00 AM -5.8 °F - -14.8 °F 65% 30.16 in 2.5 mi Calm Calm - N/A   Haze
7:15 AM -7.6 °F - -14.8 °F 71% 30.17 in 7.0 mi Calm Calm - N/A   Mostly Cloudy
7:30 AM -5.8 °F - -11.2 °F 77% 30.17 in 1.5 mi Calm Calm - N/A   Haze
7:37 AM -4.0 °F - -11.2 °F 71% 30.17 in 0.2 mi Calm Calm - N/A   Haze
7:53 AM -0.9 °F - -9.0 °F 69% 30.43 in 1.0 mi Calm Calm - N/A   Haze
8:00 AM -0.4 °F - -9.4 °F 66% 30.17 in 2.0 mi Calm Calm - N/A   Haze
8:10 AM -0.4 °F - -7.6 °F 72% 30.17 in 7.0 mi Calm Calm - N/A   Clear
8:22 AM 3.2 °F - -7.6 °F 61% 30.16 in 2.5 mi Calm Calm - N/A   Haze
8:33 AM 1.4 °F - -9.4 °F 61% 30.16 in 7.0 mi Calm Calm - N/A   Partly Cloudy
8:53 AM 1.9 °F -10.6 °F -7.1 °F 66% 30.45 in 6.0 mi SSW 6.9 mph - N/A   Haze
9:53 AM 9.0 °F 2.4 °F -2.0 °F 61% 30.43 in 10.0 mi WSW 3.5 mph - N/A   Clear
10:53 AM 12.0 °F - 1.9 °F 64% 30.40 in 10.0 mi Calm Calm - N/A   Clear
11:53 AM 12.9 °F 3.8 °F 6.1 °F 74% 30.38 in 10.0 mi SW 5.8 mph - N/A   Clear
12:53 PM 16.0 °F 6.3 °F 8.1 °F 71% 30.34 in 10.0 mi SW 6.9 mph - N/A   Clear
1:53 PM 19.9 °F - 10.0 °F 65% 30.30 in 10.0 mi Calm Calm - N/A   Clear
2:53 PM 26.1 °F 19.4 °F 9.0 °F 49% 30.27 in 10.0 mi East 5.8 mph - 0.00 in   Clear
3:53 PM 26.1 °F 18.4 °F 9.0 °F 49% 30.25 in 10.0 mi East 6.9 mph - 0.00 in   Clear
4:53 PM 25.0 °F 16.3 °F 7.0 °F 46% 30.22 in 10.0 mi ENE 8.1 mph - 0.00 in   Clear
5:53 PM 21.9 °F 17.2 °F 6.1 °F 51% 30.22 in 10.0 mi NE 3.5 mph - N/A   Clear
6:53 PM 18.0 °F - 5.0 °F 57% 30.21 in 10.0 mi Calm Calm - N/A   Clear
7:53 PM 15.1 °F - 3.9 °F 61% 30.19 in 10.0 mi Calm Calm - N/A   Clear
8:53 PM 12.9 °F - 3.9 °F 67% 30.19 in 10.0 mi Calm Calm - N/A   Partly Cloudy
9:53 PM 12.9 °F - 3.9 °F 67% 30.17 in 10.0 mi Calm Calm - N/A   Mostly Cloudy
10:53 PM 12.9 °F - 6.1 °F 74% 30.15 in 10.0 mi Calm Calm - N/A   Overcast
11:53 PM 14.0 °F 8.2 °F 5.0 °F 67% 30.11 in 10.0 mi East 3.5 mph - N/A   Overcast